This is the latest recevied weather packets stored in our database for station/object KD7KCN-5. If no packets are shown the sender has not sent any weather packets the latest 10 day(s).
| Time | Temp. | Humidity | Pressure | Rain* | Wind** | Luminosity | Snow |
|---|---|---|---|---|---|---|---|
| 1777679520 | 18.89° C | 16% | 1015.1 hPa | 0 mm | - | 318 W/m² | - |
| 1777677720 | 18.89° C | 16% | 1014.9 hPa | 0 mm | - | 461 W/m² | - |
| 1777677120 | 18.89° C | 16% | 1014.8 hPa | 0 mm | - | 503 W/m² | - |
| 1777676520 | 18.89° C | 16% | 1014.8 hPa | 0 mm | - | 573 W/m² | - |
| 1777675921 | 19.44° C | 17% | 1014.9 hPa | 0 mm | - | 568 W/m² | - |
| 1777675320 | 18.89° C | 18% | 1015 hPa | 0 mm | - | 612 W/m² | - |
| 1777674720 | 20° C | 17% | 1015.1 hPa | 0 mm | - | 167 W/m² | - |
| 1777674121 | 19.44° C | 18% | 1015.1 hPa | 0 mm | - | 673 W/m² | - |
| 1777673521 | 18.89° C | 17% | 1015.2 hPa | 0 mm | - | 714 W/m² | - |
| 1777672922 | 18.33° C | 18% | 1015.3 hPa | 0 mm | - | 773 W/m² | - |
| 1777672322 | 18.89° C | 17% | 1015.5 hPa | 0 mm | - | 185 W/m² | - |
| 1777671722 | 18.89° C | 19% | 1015.5 hPa | 0 mm | - | 766 W/m² | - |
| 1777671120 | 18.33° C | 20% | 1015.7 hPa | 0 mm | - | 893 W/m² | - |
| 1777669320 | 18.89° C | 20% | 1015.9 hPa | 0 mm | - | 925 W/m² | - |
| 1777668720 | 18.33° C | 20% | 1016.1 hPa | 0 mm | - | 197 W/m² | - |
| 1777668120 | 18.89° C | 21% | 1016.1 hPa | 0 mm | - | 963 W/m² | - |
| 1777667520 | 18.33° C | 21% | 1016.2 hPa | 0 mm | - | 958 W/m² | - |
| 1777666321 | 17.22° C | 22% | 1016.1 hPa | 0 mm | - | 325 W/m² | - |
| 1777665721 | 17.78° C | 21% | 1016.2 hPa | 0 mm | - | 241 W/m² | - |
| 1777665120 | 17.78° C | 22% | 1016.3 hPa | 0 mm | - | 1004 W/m² | - |
| 1777664521 | 18.33° C | 21% | 1016.5 hPa | 0 mm | - | 976 W/m² | - |
| 1777663320 | 18.33° C | 23% | 1016.6 hPa | 0 mm | - | 963 W/m² | - |
| 1777662720 | 17.78° C | 24% | 1016.7 hPa | 0 mm | - | 969 W/m² | - |
| 1777662121 | 16.67° C | 25% | 1016.8 hPa | 0 mm | - | 900 W/m² | - |
| 1777661521 | 16.67° C | 25% | 1017 hPa | 0 mm | - | 958 W/m² | - |
* Rain latest hour (hover to see other rain measurements)
** Current wind speed in m/s (hover to see current wind gust speed)